This is the latest recevied weather packets stored in our database for station/object N5JXS. If no packets are shown the sender has not sent any weather packets the latest 10 day(s).
| Time | Temp. | Humidity | Pressure | Rain* | Wind** | Luminosity | Snow |
|---|---|---|---|---|---|---|---|
| 1778079554 | -2.78° C | 93% | 1019.5 hPa | 0 mm | - | 54 W/m² | - |
| 1778079249 | -2.78° C | 93% | 1019.5 hPa | 0 mm | - | 50 W/m² | - |
| 1778078947 | -2.78° C | 94% | 1019.4 hPa | 0 mm | - | 54 W/m² | - |
| 1778078643 | -2.78° C | 94% | 1019.6 hPa | 0 mm | - | 50 W/m² | - |
| 1778078342 | -2.78° C | 94% | 1019.4 hPa | 0 mm | - | 38 W/m² | - |
| 1778078039 | -3.33° C | 94% | 1019.5 hPa | 0 mm | - | 34 W/m² | - |
| 1778077737 | -2.78° C | 94% | 1019.2 hPa | 0 mm | - | 40 W/m² | - |
| 1778077435 | -3.33° C | 94% | 1019.4 hPa | 0 mm | - | 49 W/m² | - |
| 1778077133 | -2.78° C | 94% | 1019.2 hPa | 0 mm | - | 51 W/m² | - |
| 1778076830 | -3.33° C | 94% | 1019.4 hPa | 0 mm | - | 34 W/m² | - |
| 1778076529 | -3.33° C | 94% | 1019.4 hPa | 0 mm | - | 28 W/m² | - |
| 1778076225 | -3.33° C | 94% | 1019.1 hPa | 0 mm | - | 35 W/m² | - |
| 1778075922 | -3.33° C | 95% | 1019.2 hPa | 0 mm | - | 28 W/m² | - |
| 1778075619 | -3.33° C | 95% | 1019.4 hPa | 0 mm | - | 20 W/m² | - |
| 1778075315 | -3.33° C | 95% | 1019.1 hPa | 0 mm | - | 29 W/m² | - |
| 1778075011 | -3.33° C | 95% | 1019.1 hPa | 0 mm | - | 47 W/m² | - |
| 1778074709 | -3.33° C | 95% | 1019.4 hPa | 0 mm | - | 58 W/m² | - |
| 1778074405 | -3.33° C | 95% | 1019.2 hPa | 0 mm | - | 41 W/m² | - |
| 1778074102 | -3.33° C | 96% | 1019 hPa | 0 mm | - | 36 W/m² | - |
| 1778073799 | -3.33° C | 96% | 1018.9 hPa | 0 mm | - | 38 W/m² | - |
| 1778073497 | -3.33° C | 96% | 1018.6 hPa | 0 mm | - | 39 W/m² | - |
| 1778073193 | -3.89° C | 96% | 1018.7 hPa | 0 mm | - | 32 W/m² | - |
| 1778072890 | -3.89° C | 96% | 1018.6 hPa | 0 mm | - | 26 W/m² | - |
| 1778072587 | -3.89° C | 96% | 1018.6 hPa | 0 mm | - | 12 W/m² | - |
| 1778072285 | -3.89° C | 96% | 1018.2 hPa | 0 mm | - | 10 W/m² | - |
* Rain latest hour (hover to see other rain measurements)
** Current wind speed in m/s (hover to see current wind gust speed)